Location: Seattle
(47.6064°N, 122.3308°W)
Time: 06:16:32
(UTC-08:00)

Envisat - Visible Passes

Search period start: 01 December 2022 00:00
Search period end: 11 December 2022 00:00
Orbit: 763 x 765 km, 98.2° (Epoch: 30 November)

Date Brightness Start Highest point End Pass type
(mag) Time Alt. Az. Time Alt. Az. Time Alt. Az.
01 Dec 4.7 04:17:13 10° NNE 04:19:17 25° NNE 04:19:17 25° NNE visible
01 Dec 4.4 05:57:09 10° NNW 05:59:28 18° NW 05:59:28 18° NW visible
02 Dec 5.5 03:40:37 10° NNE 03:41:41 15° NE 03:41:41 15° NE visible
02 Dec 4.3 05:19:29 10° N 05:21:51 25° NNW 05:21:51 25° NNW visible
03 Dec 4.6 04:42:14 10° NNE 04:44:15 24° N 04:44:15 24° N visible
03 Dec 4.8 06:23:09 10° NNW 06:24:25 13° NW 06:24:25 13° NW visible
04 Dec 5.2 04:05:20 10° NNE 04:06:39 18° NNE 04:06:39 18° NNE visible
04 Dec 4.5 05:44:56 10° N 05:46:50 19° NNW 05:46:50 19° NNW visible
04 Dec 6.0 17:05:36 10° WSW 17:07:45 13° W 17:09:55 10° WNW visible
05 Dec 5.9 03:28:54 10° NE 03:29:05 11° NE 03:29:05 11° NE visible
05 Dec 4.6 05:07:25 10° N 05:09:14 22° N 05:09:14 22° N visible
06 Dec 5.0 04:30:16 10° NNE 04:31:39 19° NNE 04:31:39 19° NNE visible
06 Dec 4.8 06:10:40 10° NNW 06:11:50 14° NNW 06:11:50 14° NNW visible
07 Dec 5.6 03:53:29 10° NNE 03:54:05 13° NNE 03:54:05 13° NNE visible
07 Dec 4.7 05:32:45 10° N 05:34:16 18° NNW 05:34:16 18° NNW visible
07 Dec 5.8 16:52:32 10° SW 16:55:38 16° W 16:58:44 10° NW visible
08 Dec 4.9 04:55:22 10° N 04:56:42 18° N 04:56:42 18° N visible
09 Dec 5.3 04:18:20 10° NNE 04:19:09 15° NNE 04:19:09 15° NNE visible
09 Dec 4.9 05:58:20 10° NNW 05:59:19 14° NNW 05:59:19 14° NNW visible
10 Dec 4.9 05:20:38 10° N 05:21:46 16° N 05:21:46 16° N visible
